Location: Unspecified
(0.0000°N, 0.0000°E)
Time: 14:33:36
(UTC+00:00)

Vanguard 2 Rocket - Pass Details

Date: 08 December 2017
Orbit: 556 x 3326 km, 32.9° (Epoch: 20 January)

Event Time Altitude Azimuth Distance (km) Brightness Sun altitude
Rises 18:43:53 0° 258° (WSW) 4,460 12.3 -11.9°
Reaches altitude 10° 18:46:34 10° 265° (W) 3,792 11.3 -12.5°
Maximum altitude 18:56:30 44° 333° (NNW) 2,909 9.4 -14.8°
Enters shadow 19:10:54 13° 37° (NE) 5,581 10.4 -18.1°
Drops below altitude 10° 19:12:37 10° 40° (NE) 5,965 - -18.5°
Sets 19:18:17 0° 46° (NE) 7,197 - -19.8°
